Location: Hannover
(52.3723°N, 9.7339°E)
Time: 22:58:28
(UTC+02:00)

ISS - Visible Passes

Search period start: 25 September 2020 00:00
Search period end: 05 October 2020 00:00
Orbit: 419 x 420 km, 51.6° (Epoch: 26 September)

Date Brightness Start Highest point End Pass type
(mag) Time Alt. Az. Time Alt. Az. Time Alt. Az.
25 Sep -3.9 20:58:03 10° W 21:01:26 81° S 21:02:08 53° ESE visible
25 Sep -0.5 22:34:51 10° W 22:35:06 12° W 22:35:06 12° W visible
26 Sep -3.8 20:10:41 10° W 20:14:04 78° S 20:16:31 17° E visible
26 Sep -2.1 21:47:28 10° W 21:49:28 32° W 21:49:28 32° W visible
27 Sep -3.8 21:00:04 10° W 21:03:26 72° S 21:03:50 62° SE visible
28 Sep -3.8 20:12:40 10° W 20:16:02 79° S 20:18:11 21° E visible
28 Sep -1.6 21:49:31 10° W 21:51:09 24° WSW 21:51:09 24° WSW visible
29 Sep -3.3 21:02:04 10° W 21:05:21 49° SSW 21:05:30 49° S visible
30 Sep -3.5 20:14:37 10° W 20:17:58 61° SSW 20:19:53 23° ESE visible
30 Sep -1.1 21:51:44 10° W 21:52:51 16° WSW 21:52:51 16° WSW visible
01 Oct -3.6 19:27:11 10° W 19:30:33 72° S 19:33:56 10° ESE visible
01 Oct -2.3 21:04:07 10° W 21:07:05 29° SSW 21:07:15 28° SSW visible
02 Oct -2.7 20:16:35 10° W 20:19:44 38° SSW 20:21:42 19° SE visible
03 Oct -3.0 19:29:05 10° W 19:32:21 49° SSW 19:35:38 10° SE visible
03 Oct -1.3 21:06:35 10° WSW 21:08:37 15° SW 21:09:10 15° SSW visible
04 Oct -1.6 20:18:44 10° W 20:21:21 21° SW 20:23:45 11° SSE visible
